Location: Camaret
(48.2753°N, 4.5961°W)
Time: 03:38:56
(UTC+00:00)

Ariane Rocket - Pass Details

Date: 29 October 2020
Orbit: 759 x 771 km, 98.7° (Epoch: 01 December)

Event Time Altitude Azimuth Distance (km) Brightness Sun altitude
Exits shadow 19:33:52 35° 19° (NNE) 1,225 3.9 -25.5°
Drops below altitude 10° 19:37:06 10° 355° (N) 2,324 5.6 -26.0°
Sets 19:39:28 0° 350° (N) 3,254 6.5 -26.4°
